Volver al catálogo

STARLINK-36283

ActivoComunicacionesVLEO
NORAD 67197·PAYLOAD·🇺🇸 United States

Lanzado Dec 17, 2025 desde Vandenberg Space Force Base

Loading…

Próximos Pases (próximas 24 horas)

TLE

ActualizadoSource: CelesTrak SupGP

Época: Sep 15, 2026, 03:35 UTC

1 67197C 25304F   26258.14979167 -.00028919  00000+0 -24239-2 0  2581
2 67197  70.0012  56.6351 0002746 270.7852 210.6125 14.98340503    13

Sigue STARLINK-36283 en tiempo real con AllMySat

Download on the App Store